Regional Weather Roundup
Issued by NWS Grand Forks, ND

Home | Current Version | Previous Version | Graphics & Text | Print | Product List | Glossary On
Versions: 1 2 3 4 5 6 7 8 9 10 11 12 13 14 15 16 17 18 19 20 21 22 23 24 25 26 27 28 29 30 31 32 33 34 35 36 37 38 39 40 41 42 43 44 45 46 47 48 49 50
054
ASUS43 KFGF 080631
RWRFGF
PRAIRIE TO PINES  WEATHER ROUNDUP
NATIONAL WEATHER SERVICE EASTERN NORTH DAKOTA/GRAND FORKS ND
1200 AM CST THU DEC 08 2016

 **SATELLITE DATA USED TO AUGMENT SKY COVER AT AUTOMATED STATIONS**
 *****  WEATHER ACROSS EASTERN NORTH DAKOTA  *****

CITY           SKY/WX    TMP DP  RH WIND       PRES   REMARKS
GRAND FORKS    LGT SNOW  19  15  84 NW21      30.28R FOG     WCI   3
6HR MIN TEMP:  19; 6HR MAX TEMP:  21; 6HR PCP:  0.02;

GRAND FRKS AFB LGT SNOW  16  12  86 NW16G23   30.29R WCI   0
DEVILS LAKE    LGT SNOW  10   9  92 NW25      30.34S FOG     WCI -10
6HR MIN TEMP:  12; 6HR MAX TEMP:  13; 6HR PCP: TRACE;

FARGO          LGT SNOW  18  12  77 NW24G36   30.25R WCI   0
WAHPETON ARPT  CLOUDY    14  10  85 NW22G31   30.26R WCI  -4
$$

 ***** WEATHER ACROSS CENTRAL AND WESTERN NORTH DAKOTA  *****

CITY           SKY/WX    TMP DP  RH WIND       PRES   REMARKS
BISMARCK       LGT SNOW   5   1  83 NW15      30.50R FOG     WCI -13
6HR MIN TEMP:   4; 6HR MAX TEMP:   5; 6HR PCP:  0.01;

MINOT          LGT SNOW   6   1  80 W28       30.46R WCI -17
6HR MIN TEMP:   5; 6HR MAX TEMP:   6; 6HR PCP: TRACE;

JAMESTOWN      CLOUDY     8   4  83 NW26G33   30.35R BLWGSNOWWCI -14
6HR MIN TEMP:   8; 6HR MAX TEMP:   8; 6HR PCP: TRACE;

MINOT AFB      PTCLDY     4  -1  80 NW26      30.46R FOG     WCI -19
GARRISON         N/A      4   0  83 NW25G32   30.47R WCI -19
WILLISTON      CLOUDY     0  -7  72 W16       30.60S WCI -20
6HR MIN TEMP:   0; 6HR MAX TEMP:   3; 6HR PCP: TRACE;

DICKINSON      CLEAR     -2  -8  76 NW15      30.48R WCI -22
6HR MIN TEMP:  -2; 6HR MAX TEMP:   0;

HETTINGER      CLEAR     -1  -7  75 NW17      30.50R WCI -22
6HR MIN TEMP:  -1; 6HR MAX TEMP:   1;

$$

 *****  OTHER AIRPORT OBSERVATIONS IN OUR AREA  *****

CITY           SKY/WX    TMP DP  RH WIND       PRES   REMARKS
WALHALLA         N/A     16  16 100 NW18G30   30.32R WCI  -1
GRAFTON AIRPOR FLURRIES  18  16  93 NW24      30.30R WCI   0
VALLEY CITY AR FLURRIES   9   7  92 NW24G32   30.33R WCI -12
CANDO          CLOUDY    10   7  85 NW22      30.39R WCI  -9
CAVALIER APRT  LGT SNOW  18  14  86 NW24G32   30.30R WCI   0
GWINNER        CLOUDY    14  10  85 NW23G31   30.32R WCI  -5
SHEYENNE NWR     N/A     13   6  73 NW16      29.95S WCI  -3
ROLLA          LGT SNOW   7   5  92 NW30G37   30.35R WCI -17
 ***** THE ABOVE OBSERVATIONS ARE NON NWS ARE NOT QUALITY
       CONTROLLED AND MAY MIS-REPORT RAIN FOR SNOW...
$$

  *****  WEATHER ACROSS NORTHERN MINNESOTA  *****

CITY           SKY/WX    TMP DP  RH WIND       PRES   REMARKS
FLAG ISLAND    MOCLDY    21  18  86 N17       30.12R WCI   7
WARROAD        LGT SNOW  19  16  86 NW14G20   30.15R WCI   6
ROSEAU         LGT SNOW  19  16  86 NW15      30.17R WCI   5
HALLOCK        CLOUDY    19  18  93 N20G26    30.25R FOG     WCI   4
THF RVR FALLS  FLURRIES  19  16  86 NW18      30.19R WCI   4
6HR MIN TEMP:  19; 6HR MAX TEMP:  21; 6HR PCP: TRACE;

BAUDETTE       LGT SNOW  21  16  81 N15G22    30.09R WCI   8
6HR MIN TEMP:  21; 6HR MAX TEMP:  24; 6HR PCP: TRACE;

WASKISH        CLOUDY    19  18  93 NW12      30.09R WCI   7
CROOKSTON      LGT SNOW  19  18  93 N28       30.24R WCI   1
STEPHEN NDAWN    N/A     19  18  93 N24         N/A  WCI   2
GREENBUSH NDAW   N/A     18  18 100 NW20        N/A  WCI   1
$$
  *****  WEATHER ACROSS CENTRAL AND WEST MINNESOTA  *****

CITY           SKY/WX    TMP DP  RH WIND       PRES   REMARKS
FOSSTON        LGT SNOW  16  14  93 NW18      30.16R WCI  -1
BEMIDJI        FLURRIES  17  14  88 NW12      30.09R WCI   4
PARK RAPIDS    CLOUDY    19  12  74 NW15      30.09R WCI   5
6HR MIN TEMP:  16; 6HR MAX TEMP:  20; 6HR PCP: TRACE;

ELBOW LAKE     LGT SNOW  12  10  92 NW18      30.22R WCI  -6
WADENA         CLEAR     18  12  79 NW14G21   30.12R WCI   4
DETROIT LAKES  LGT SNOW  19  18  93 NW20G26   30.16R WCI   4
MOORHEAD       MIX PCPN  18  12  79 NW29      30.25R WCI  -2
FERGUS FALLS   LGT SNOW  12  10  92 NW21      30.26R WCI  -6
MORRIS MN      LGT SNOW  12   9  85 NW23G32   30.22R WCI  -7
STAPLES        CLOUDY    18  14  86 W15       30.10R WCI   3
$$
  *****  WEATHER ELSEWHERE ACROSS MINNESOTA  *****

CITY           SKY/WX    TMP DP  RH WIND       PRES   REMARKS
DULUTH         LGT SNOW  21  17  84 NW12      29.94R FOG     WCI   9
6HR MIN TEMP:  16; 6HR MAX TEMP:  20;

INTRNTL FALLS  LGT SNOW  21  16  81 N12       30.03R WCI   9
6HR MIN TEMP:  21; 6HR MAX TEMP:  24; 6HR PCP:  0.03;

ELY            FLURRIES  21  18  86 NW8       29.92R WCI  12
CLOQUET        LGT SNOW  19  16  86 W9        29.97R WCI   9
WHEATON        LGT SNOW  14  10  85 W22G28    30.29R WCI  -4
BRAINERD       CLOUDY    19  14  81 W13G22    30.07R WCI   6
6HR MIN TEMP:  15; 6HR MAX TEMP:  19; 6HR PCP: TRACE;

HIBBING        MIX PCPN  21  17  84 NW17      29.96R WCI   7
6HR MIN TEMP:  16; 6HR MAX TEMP:  21; 6HR PCP:  0.01;

ALEXANDRIA     LGT SNOW  13   9  84 NW24      30.16S FOG     WCI  -7
6HR MIN TEMP:  11; 6HR MAX TEMP:  13; 6HR PCP: TRACE;

SAINT CLOUD    LGT SNOW  15  11  83 W15       30.13R FOG     WCI   0
6HR MIN TEMP:  14; 6HR MAX TEMP:  15; 6HR PCP: TRACE;

MINNEAPOLIS    LGT SNOW  16   9  74 W20G28    30.15R WCI  -1
6HR MIN TEMP:  16; 6HR MAX TEMP:  19; 6HR PCP: TRACE;

$$

  *****  WEATHER ACROSS SOUTH DAKOTA  *****

CITY           SKY/WX    TMP DP  RH WIND       PRES   REMARKS
SIOUX FALLS    CLEAR      8   3  80 NW20G31   30.37R WCI -11
6HR MIN TEMP:   8; 6HR MAX TEMP:  14;

BROOKINGS      LGT SNOW   7   3  84 NW18G26   30.31R FOG     WCI -12
WATERTOWN      CLOUDY     8   3  80 NW21G29   30.30R WCI -12
6HR MIN TEMP:   6; 6HR MAX TEMP:   8; 6HR PCP: TRACE;

HURON          CLOUDY     7   1  76 NW23G30   30.44S WCI -14
6HR MIN TEMP:   7; 6HR MAX TEMP:  12; 6HR PCP: TRACE;

SISSETON         N/A     13   7  77 NW25G35   30.28R WCI  -7
ABERDEEN       FLURRIES  10   2  69 NW26G35   30.40R WCI -11
6HR MIN TEMP:   8; 6HR MAX TEMP:  10; 6HR PCP:  0.01;

MITCHELL       CLEAR      9   1  70 NW20G30   30.47R WCI -10
PIERRE         CLOUDY     7   0  73 NW30G36   30.50R WCI -16
6HR MIN TEMP:   7; 6HR MAX TEMP:  11; 6HR PCP: TRACE;

MOBRIDGE       CLOUDY     5  -3  69 NW25G35   30.44S WCI -18
RAPID CITY     CLEAR      4  -5  66 NW18      30.49R WCI -16
6HR MIN TEMP:  -2; 6HR MAX TEMP:   7;

$$

  *****  SOME WEATHER IN NEARBY STATES *****

CITY           SKY/WX    TMP DP  RH WIND       PRES   REMARKS
GLASGOW MT     MOCLDY    -2  -9  72 NW10      30.63R WCI -19
6HR MIN TEMP:  -3; 6HR MAX TEMP:   1;

GREAT FALLS MT CLOUDY     0  -7  72 N3        30.52S
6HR MIN TEMP:   0; 6HR MAX TEMP:   1;

CHEYENNE WY    CLOUDY   -12 -17  78 W6        30.31R WCI -26
6HR MIN TEMP: -12; 6HR MAX TEMP:   0;

SCOTTSBLUFF NE CLEAR     -2 -10  69 NW9       30.48S WCI -18
6HR MIN TEMP:  -3; 6HR MAX TEMP:   7;

OMAHA NE       CLEAR     16   5  62 NW15      30.47R WCI   1
6HR MIN TEMP:  16; 6HR MAX TEMP:  22;

DES MOINES IA  MOCLDY    18   8  65 NW21G30   30.36R WCI   1
6HR MIN TEMP:  18; 6HR MAX TEMP:  22;

DAVENPORT IA   MOCLDY    20  11  68 W22G30    30.25S WCI   3
6HR MIN TEMP:  19; 6HR MAX TEMP:  24;

CHICAGO IL     FLURRIES  23  13  65 W16G33    30.14S WCI  10
6HR MIN TEMP:  22; 6HR MAX TEMP:  24; 6HR PCP: TRACE;

EAU CLAIRE WI  LGT SNOW  16  11  80 W16       30.07S WCI   1
6HR MIN TEMP:  16; 6HR MAX TEMP:  19; 6HR PCP: TRACE;

LA CROSSE WI   CLOUDY    19   8  62 W17       30.16R WCI   4
6HR MIN TEMP:  19; 6HR MAX TEMP:  23; 6HR PCP: TRACE;

$$

  *****  SOME NATIONAL WEATHER *****

CITY           SKY/WX    TMP DP  RH WIND       PRES   REMARKS
LA GUARDIA NY  PTCLDY    44  34  67 SW3       30.00F
6HR MIN TEMP:  43; 6HR MAX TEMP:  47;

RALEIGH NC     MOCLDY    50  44  80 CALM      30.05F
6HR MIN TEMP:  44; 6HR MAX TEMP:  50;

ATLANTA GA     MOCLDY    44  40  85 NW13      30.11S
6HR MIN TEMP:  44; 6HR MAX TEMP:  51;

NEW ORLEANS LA CLOUDY    58  56  93 N9        30.18S
6HR MIN TEMP:  57; 6HR MAX TEMP:  61;

OKLAHOMA CITY  CLOUDY    28  23  81 N16       30.51R WCI  16
6HR MIN TEMP:  29; 6HR MAX TEMP:  35;

ALBUQUERQUE NM CLOUDY    32  15  49 E17       30.22R WCI  21
6HR MIN TEMP:  32; 6HR MAX TEMP:  41;

SALT LAKE CITY PTCLDY    20   9  62 SE7       30.33S WCI  11
6HR MIN TEMP:  20; 6HR MAX TEMP:  26;

LOS ANGELES CA CLEAR     58  51  78 SE5       30.16R
6HR MIN TEMP:  56; 6HR MAX TEMP:  60;

BOISE ID       PTCLDY  C1F1C2F2C3F3C4F4C5F5C6F6C7F7C8F8C9F9CaFaCbFbCcFcCd!



USA.gov is the U.S. government's official web portal to all federal, state and local government web resources and services.